Total_Precipitation_Accumulation
0.00 0.00 0.01 0.01 0.01 0.02 0.02 0.05 0.11 0.19 0.12 0.12 0.23 0.42 0.48 0.51 0.60 0.77 0.91 0.88 0.94 1.07 1.39 1.77 2.18 2.68 3.21 3.86 4.61 4.69 4.14 3.54 2.98 2.47 2.06 1.76 1.46 1.30 1.23 1.04 0.91 0.87 0.86 0.85
0.01 0.02 0.02 0.02 0.02 0.04 0.05 0.07 0.12 0.16 0.11 0.13 0.20 0.40 0.58 0.68 0.80 0.80 0.85 0.90 0.87 1.08 1.43 1.85 2.32 2.74 3.06 3.47 4.01 3.94 3.43 2.79 2.12 1.70 1.54 1.40 1.22 1.00 0.84 0.74 0.73 0.64 0.66 0.70
0.01 0.03 0.02 0.02 0.02 0.05 0.07 0.08 0.12 0.14 0.07 0.12 0.19 0.48 0.75 0.86 0.72 0.59 0.51 0.61 0.64 0.80 1.25 1.87 2.38 2.68 2.89 3.00 2.87 2.70 2.30 1.75 1.42 1.18 1.08 0.99 0.91 0.79 0.63 0.54 0.51 0.45 0.44 0.46
0.01 0.02 0.01 0.02 0.03 0.04 0.07 0.05 0.05 0.05 0.06 0.20 0.29 0.75 0.98 0.87 0.70 0.56 0.42 0.40 0.43 0.60 1.03 1.76 2.06 2.11 2.15 2.13 1.83 1.63 1.50 1.25 1.06 0.92 0.82 0.75 0.63 0.61 0.52 0.45 0.41 0.36 0.35 0.35
0.02 0.02 0.02 0.02 0.03 0.04 0.05 0.04 0.04 0.07 0.11 0.25 0.43 0.72 0.97 0.80 0.72 0.54 0.38 0.34 0.39 0.50 0.74 1.08 1.13 1.23 1.27 1.21 1.12 1.13 1.20 1.11 1.02 0.93 0.88 0.85 0.63 0.52 0.46 0.40 0.37 0.32 0.32 0.33
0.04 0.04 0.03 0.03 0.02 0.03 0.04 0.05 0.11 0.23 0.34 0.66 0.66 0.71 1.02 0.85 0.62 0.39 0.27 0.28 0.26 0.32 0.48 0.67 0.70 0.71 0.69 0.62 0.69 0.81 0.99 1.05 0.98 0.87 0.81 0.75 0.63 0.53 0.44 0.36 0.34 0.30 0.30 0.32
0.10 0.08 0.08 0.06 0.05 0.06 0.05 0.09 0.26 0.60 0.99 1.11 0.66 0.67 0.96 0.60 0.37 0.26 0.19 0.18 0.23 0.33 0.43 0.54 0.66 0.64 0.54 0.48 0.51 0.60 0.69 0.71 0.71 0.72 0.74 0.71 0.63 0.55 0.45 0.37 0.29 0.27 0.26 0.28
0.14 0.15 0.11 0.07 0.05 0.06 0.07 0.09 0.18 0.36 0.45 0.55 0.53 0.91 1.00 0.47 0.30 0.18 0.12 0.12 0.17 0.24 0.30 0.33 0.40 0.39 0.35 0.34 0.33 0.38 0.46 0.46 0.47 0.52 0.58 0.59 0.54 0.46 0.40 0.40 0.30 0.25 0.27 0.30
0.06 0.06 0.04 0.04 0.06 0.06 0.06 0.06 0.07 0.08 0.13 0.33 0.58 0.79 0.69 0.40 0.23 0.14 0.09 0.08 0.09 0.11 0.12 0.14 0.14 0.15 0.17 0.21 0.26 0.30 0.35 0.36 0.37 0.43 0.47 0.46 0.45 0.44 0.43 0.40 0.32 0.28 0.33 0.33
0.03 0.03 0.03 0.04 0.05 0.07 0.07 0.06 0.06 0.05 0.14 0.31 0.51 0.77 0.77 0.46 0.26 0.13 0.08 0.07 0.06 0.05 0.05 0.06 0.07 0.07 0.08 0.09 0.18 0.26 0.28 0.34 0.39 0.41 0.38 0.35 0.38 0.38 0.38 0.35 0.33 0.37 0.33 0.32
0.02 0.02 0.02 0.03 0.05 0.07 0.06 0.06 0.06 0.06 0.07 0.17 0.40 0.58 0.45 0.29 0.14 0.09 0.06 0.04 0.04 0.04 0.04 0.03 0.04 0.04 0.05 0.07 0.11 0.18 0.22 0.28 0.31 0.31 0.32 0.37 0.37 0.36 0.35 0.35 0.36 0.38 0.34 0.34
0.03 0.02 0.02 0.06 0.07 0.07 0.06 0.06 0.07 0.09 0.09 0.11 0.21 0.29 0.19 0.17 0.12 0.10 0.07 0.05 0.05 0.04 0.03 0.03 0.02 0.02 0.04 0.06 0.07 0.13 0.14 0.15 0.17 0.22 0.24 0.26 0.31 0.33 0.35 0.36 0.38 0.37 0.33 0.30
0.03 0.02 0.04 0.14 0.20 0.14 0.08 0.06 0.09 0.09 0.09 0.10 0.25 0.35 0.20 0.14 0.15 0.16 0.09 0.07 0.06 0.06 0.05 0.04 0.03 0.03 0.04 0.05 0.08 0.10 0.11 0.12 0.13 0.17 0.19 0.22 0.25 0.29 0.35 0.38 0.37 0.34 0.34 0.33
0.05 0.04 0.05 0.16 0.22 0.21 0.17 0.12 0.10 0.11 0.11 0.10 0.17 0.31 0.23 0.16 0.18 0.14 0.08 0.09 0.07 0.06 0.07 0.07 0.07 0.05 0.06 0.06 0.09 0.12 0.13 0.15 0.15 0.17 0.21 0.25 0.29 0.32 0.34 0.36 0.39 0.38 0.39 0.39
0.06 0.06 0.05 0.05 0.10 0.16 0.18 0.14 0.11 0.09 0.09 0.11 0.12 0.18 0.23 0.26 0.19 0.11 0.13 0.17 0.11 0.09 0.09 0.07 0.07 0.07 0.06 0.07 0.09 0.10 0.13 0.17 0.18 0.19 0.22 0.24 0.27 0.30 0.30 0.33 0.37 0.40 0.42 0.43
0.09 0.08 0.07 0.06 0.10 0.11 0.13 0.16 0.11 0.07 0.06 0.07 0.07 0.13 0.19 0.22 0.24 0.22 0.17 0.14 0.12 0.11 0.10 0.12 0.15 0.13 0.12 0.12 0.12 0.13 0.17 0.22 0.27 0.30 0.30 0.27 0.30 0.31 0.29 0.32 0.35 0.39 0.42 0.47
0.14 0.14 0.15 0.14 0.14 0.14 0.15 0.14 0.10 0.08 0.09 0.09 0.09 0.12 0.17 0.25 0.26 0.28 0.29 0.21 0.17 0.17 0.18 0.22 0.26 0.21 0.16 0.15 0.17 0.20 0.24 0.27 0.32 0.36 0.42 0.43 0.42 0.42 0.40 0.41 0.46 0.50 0.57 0.59
0.23 0.24 0.21 0.20 0.23 0.26 0.17 0.13 0.12 0.10 0.11 0.12 0.15 0.21 0.25 0.32 0.37 0.41 0.45 0.41 0.30 0.21 0.21 0.21 0.22 0.24 0.26 0.26 0.27 0.29 0.35 0.40 0.48 0.55 0.63 0.69 0.70 0.70 0.71 0.74 0.73 0.74 0.77 0.76
0.26 0.34 0.33 0.31 0.36 0.30 0.22 0.19 0.17 0.19 0.21 0.23 0.31 0.43 0.47 0.47 0.50 0.51 0.41 0.31 0.24 0.20 0.20 0.22 0.22 0.24 0.27 0.34 0.37 0.36 0.41 0.47 0.61 0.72 0.80 0.86 0.90 0.92 0.92 0.90 0.90 0.94 1.00 0.98
0.30 0.32 0.40 0.38 0.41 0.41 0.36 0.32 0.31 0.37 0.54 0.48 0.54 0.56 0.50 0.44 0.51 0.48 0.35 0.25 0.19 0.17 0.17 0.20 0.22 0.24 0.29 0.36 0.38 0.44 0.51 0.56 0.61 0.63 0.71 0.85 0.98 1.04 1.00 0.98 1.03 1.10 1.17 1.15
0.50 0.51 0.47 0.44 0.46 0.40 0.40 0.38 0.44 0.71 0.86 0.70 0.65 0.62 0.56 0.59 0.59 0.52 0.40 0.28 0.19 0.16 0.16 0.18 0.21 0.25 0.31 0.37 0.43 0.56 0.66 0.66 0.65 0.67 0.73 0.82 0.93 1.03 1.01 1.04 1.07 1.14 1.18 1.19
0.70 0.71 0.69 0.65 0.72 0.68 0.47 0.51 0.72 0.85 0.68 0.62 0.62 0.71 0.72 0.66 0.55 0.45 0.38 0.32 0.23 0.18 0.16 0.18 0.21 0.25 0.29 0.36 0.46 0.60 0.73 0.76 0.78 0.83 0.89 0.96 1.03 1.01 0.99 1.08 1.14 1.22 1.28 1.27
0.76 0.78 0.80 0.81 0.84 0.73 0.62 0.66 0.64 0.61 0.65 0.66 0.65 0.75 0.75 0.65 0.59 0.47 0.39 0.34 0.27 0.22 0.17 0.17 0.21 0.26 0.31 0.37 0.50 0.66 0.73 0.76 0.80 0.87 0.91 1.00 1.07 1.10 1.10 1.15 1.20 1.34 1.42 1.40
0.69 0.67 0.75 0.85 0.82 0.73 0.70 0.70 0.61 0.55 0.58 0.60 0.62 0.62 0.65 0.58 0.57 0.56 0.45 0.33 0.26 0.21 0.17 0.17 0.19 0.24 0.28 0.29 0.36 0.47 0.55 0.61 0.68 0.71 0.73 0.78 0.88 0.95 1.05 1.17 1.19 1.24 1.32 1.38
0.64 0.59 0.66 0.84 0.93 0.98 0.91 0.81 0.73 0.66 0.66 0.70 0.70 0.65 0.61 0.51 0.46 0.46 0.41 0.31 0.24 0.18 0.16 0.17 0.20 0.23 0.24 0.25 0.28 0.31 0.41 0.56 0.65 0.65 0.65 0.72 0.80 0.88 1.02 1.16 1.21 1.14 1.16 1.24
0.72 0.66 0.61 0.75 0.81 0.97 1.03 0.94 0.82 0.73 0.76 0.77 0.75 0.67 0.60 0.50 0.41 0.31 0.26 0.22 0.20 0.19 0.20 0.23 0.25 0.24 0.24 0.25 0.27 0.30 0.38 0.52 0.63 0.65 0.65 0.68 0.73 0.83 0.95 1.07 1.12 0.99 0.85 0.84